Terminal Aerodrome Forecast
Issued by NWS

Current Version | Previous Version | Graphics & Text | Print | Product List | Glossary On
Versions: 1 2 3 4 5 6 7 8 9 10 11 12 13 14 15 16 17 18 19 20 21 22 23 24 25 26 27 28 29 30 31 32 33 34
000
FTUS41 KRNK 221434 AAB
TAFLWB
TAF AMD
KLWB 221434Z 2215/2312 27005KT P6SM SCT014 OVC050
     FM221800 27004KT 4SM SHRA VCTS OVC025CB
      TEMPO 2218/2220 2SM +SHRA OVC035
     FM222000 03006KT 3SM SHRA BR OVC025
     FM230000 07006KT 3SM -SHRA BR OVC006
     FM230700 08007KT 4SM SHRA BR OVC008=

USA.gov is the U.S. government's official web portal to all federal, state and local government web resources and services.